Weather History for KFDK - March, 2014

Change the Weather History Date:

Thursday, March 20, 2014

  Actual Average (KHGR) Record (KHGR)
Temperature  
Mean Temperature 45 °F 43 °F  
Max Temperature 53 °F 52 °F 72 °F (2012)
Min Temperature 37 °F 33 °F 28 °F (1999)
Degree Days  
Heating Degree Days 20 22  
Month to date heating degree days 509  
Since 1 July heating degree days 4412  
Cooling Degree Days 0 0  
Month to date cooling degree days 0  
Year to date cooling degree days 0  
Moisture  
Dew Point 35 °F    
Average Humidity 75    
Maximum Humidity 100    
Minimum Humidity 35    
Precipitation  
Precipitation 0.00 in 0.12 in 1.31 in (2003)
Month to date precipitation 1.97  
Year to date precipitation 7.20  
Sea Level Pressure  
Sea Level Pressure 29.92 in    
Wind  
Wind Speed 9 mph (West)    
Max Wind Speed 24 mph    
Max Gust Speed 31 mph    
Visibility 7 miles    
Events Fog    
T = Trace of Precipitation, MM = Missing Value Source: NWS Daily Summary

Daily Weather History Graph

Daily Weather History Graph

Search for Another Location

Airport or City:

Trip Planner

Search our weather history database for the weather conditions in past years. The results will help you decide how hot, cold, wet, or windy it might be!

Date:

Astronomy

Mar. 20, 2014 Rise Set
Actual Time 7:12 AM EDT 7:21 PM EDT
Civil Twilight 6:46 AM EDT 7:48 PM EDT
Nautical Twilight 6:14 AM EDT 8:19 PM EDT
Astronomical Twilight 5:43 AM EDT 8:51 PM EDT
Moon 11:38 PM EDT (3/20) 9:18 AM EDT (3/20)
Length of Visible Light 13h 02m
Length of Day
12h 08m
Waning Gibbous, 84% of the Moon is Illuminated
Mar 20
Waning Gibbous
Mar 23
Last Quarter
Mar 30
New
Apr 7
First Quarter
Apr 15
Full

Hourly Weather History & Observations

Time (EDT) Temp. Windchill Dew Point Humidity Pressure Visibility Wind Dir Wind Speed Gust Speed Precip Events Conditions
12:15 AM 41.0 °F 36.4 °F 41.0 °F 100% 29.88 in 4.0 mi SSW 6.9 mph - N/A   Overcast
12:35 AM 41.0 °F 38.0 °F 41.0 °F 100% 29.89 in 3.0 mi SW 4.6 mph - N/A   Overcast
12:55 AM 41.0 °F 35.2 °F 41.0 °F 100% 29.87 in 4.0 mi SSW 9.2 mph - N/A   Overcast
1:15 AM 41.0 °F 37.1 °F 41.0 °F 100% 29.86 in 3.0 mi South 5.8 mph - N/A   Overcast
1:35 AM 41.0 °F 37.1 °F 41.0 °F 100% 29.85 in 3.0 mi SW 5.8 mph - N/A   Overcast
1:55 AM 41.0 °F 38.0 °F 41.0 °F 100% 29.85 in 3.0 mi SSW 4.6 mph - N/A   Overcast
2:15 AM 41.0 °F 36.4 °F 41.0 °F 100% 29.84 in 2.5 mi South 6.9 mph - N/A   Overcast
2:35 AM 41.0 °F 36.4 °F 41.0 °F 100% 29.84 in 1.2 mi SSW 6.9 mph - N/A   Overcast
2:55 AM 41.0 °F 34.7 °F 41.0 °F 100% 29.84 in 0.8 mi SW 10.4 mph - N/A   Overcast
3:15 AM 41.0 °F 35.8 °F 41.0 °F 100% 29.84 in 0.5 mi SSW 8.1 mph - N/A Fog Fog
3:35 AM 41.0 °F 38.0 °F 41.0 °F 100% 29.84 in 0.5 mi WSW 4.6 mph - N/A Fog Fog
3:55 AM 39.2 °F 37.0 °F 39.2 °F 100% 29.85 in 0.5 mi WSW 3.5 mph - N/A Fog Fog
4:15 AM 37.4 °F 30.8 °F 37.4 °F 100% 29.85 in 0.8 mi SW 9.2 mph - N/A   Overcast
4:35 AM 39.2 °F 32.5 °F 39.2 °F 100% 29.85 in 5.0 mi SW 10.4 mph - N/A   Mostly Cloudy
4:55 AM 39.2 °F 34.2 °F 39.2 °F 100% 29.85 in 4.0 mi South 6.9 mph - N/A   Mostly Cloudy
5:15 AM 39.2 °F 34.2 °F 39.2 °F 100% 29.85 in 7.0 mi SW 6.9 mph - N/A   Clear
5:35 AM 37.4 °F 33.8 °F 37.4 °F 100% 29.85 in 7.0 mi SSE 4.6 mph - N/A   Clear
5:55 AM 39.2 °F - 39.2 °F 100% 29.86 in 7.0 mi Calm Calm - N/A   Clear
6:15 AM 41.0 °F 33.9 °F 39.2 °F 93% 29.86 in 10.0 mi West 12.7 mph 17.3 mph N/A   Clear
6:35 AM 44.6 °F 36.4 °F 35.6 °F 71% 29.86 in 10.0 mi West 20.7 mph 28.8 mph N/A   Clear
6:45 AM 46.4 °F 39.2 °F 35.6 °F 66% 29.87 in 10.0 mi WNW 18.4 mph 25.3 mph N/A   Clear
7:55 AM 46.4 °F 40.1 °F 35.6 °F 66% 29.89 in 10.0 mi WNW 15.0 mph 20.7 mph N/A   Clear
9:45 AM 48.2 °F - 33.8 °F 58% 29.92 in 10.0 mi WNW 13.8 mph 23.0 mph N/A   Clear
10:45 AM 50.0 °F - 33.8 °F 54% 29.92 in 10.0 mi WNW 18.4 mph 28.8 mph N/A   Scattered Clouds
12:59 PM 53.6 °F - 30.2 °F 41% 29.93 in 10.0 mi WNW 24.2 mph 31.1 mph N/A   Mostly Cloudy
2:50 PM 53.6 °F - 28.4 °F 38% 29.92 in 10.0 mi WNW 18.4 mph 27.6 mph N/A   Clear
4:59 PM 53.6 °F - 28.4 °F 38% 29.92 in 10.0 mi WNW 17.3 mph 26.5 mph N/A   Mostly Cloudy
5:45 PM 53.6 °F - 26.6 °F 35% 29.93 in 10.0 mi WNW 12.7 mph - N/A   Scattered Clouds
6:45 PM 50.0 °F - 26.6 °F 40% 29.96 in 10.0 mi NW 16.1 mph 21.9 mph N/A   Mostly Cloudy
7:45 PM 48.2 °F - 26.6 °F 43% 29.99 in 10.0 mi NW 8.1 mph 18.4 mph N/A   Scattered Clouds
8:55 PM 46.4 °F 41.1 °F 28.4 °F 50% 30.02 in 10.0 mi WNW 11.5 mph 19.6 mph N/A   Mostly Cloudy
9:15 PM 44.6 °F 40.2 °F 28.4 °F 53% 30.02 in 10.0 mi WNW 8.1 mph - N/A   Scattered Clouds
9:35 PM 44.6 °F 40.2 °F 28.4 °F 53% 30.03 in 10.0 mi WNW 8.1 mph - N/A   Scattered Clouds
9:55 PM 44.6 °F 38.4 °F 28.4 °F 53% 30.03 in 10.0 mi WNW 12.7 mph - N/A   Mostly Cloudy
10:15 PM 44.6 °F 38.8 °F 26.6 °F 49% 30.03 in 10.0 mi WNW 11.5 mph - N/A   Scattered Clouds
10:35 PM 42.8 °F 38.0 °F 28.4 °F 57% 30.03 in 10.0 mi WNW 8.1 mph - N/A   Scattered Clouds
10:55 PM 44.6 °F 39.2 °F 28.4 °F 53% 30.03 in 10.0 mi WNW 10.4 mph - N/A   Clear
11:15 PM 42.8 °F 38.6 °F 26.6 °F 53% 30.04 in 10.0 mi NW 6.9 mph - N/A   Clear
11:35 PM 41.0 °F 39.0 °F 28.4 °F 61% 30.04 in 10.0 mi NW 3.5 mph - N/A   Clear
11:55 PM 39.2 °F 37.0 °F 28.4 °F 65% 30.03 in 10.0 mi WNW 3.5 mph - N/A   Clear